StationID,Date,MaxTemp,MinTemp,Precipitation,Snowfall,SnowDepth
"CA002202578","2003-08-14",70.52,49.28,,0.00,
"CA002202578","2003-08-15",70.52,54.14,20.00,0.00,
"CA002202578","2003-08-16",62.24,49.82,0.00,0.00,
"CA002202578","2003-08-17",55.94,45.14,0.00,0.00,
"CA002202578","2003-08-18",56.12,42.26,0.00,0.00,
"CA002202578","2003-08-19",51.62,43.16,0.00,0.00,
"CA002202578","2003-08-20",50.54,34.34,0.00,0.00,
"CA002202578","2003-08-21",57.92,41.72,0.00,0.00,
"CA002202578","2003-08-22",56.12,44.42,0.00,0.00,
"CA002202578","2003-08-23",57.56,39.02,38.00,0.00,
"CA002202578","2003-08-24",60.80,40.64,30.00,0.00,
"CA002202578","2003-08-25",52.70,37.40,14.00,0.00,
"CA002202578","2003-08-26",65.66,46.40,14.00,0.00,
"CA002202578","2003-08-27",55.58,42.80,2.00,0.00,
"CA002202578","2003-08-28",53.78,40.82,24.00,0.00,
"CA002202578","2003-08-29",63.50,41.72,2.00,0.00,
"CA002202578","2003-08-30",73.76,45.86,0.00,0.00,
"CA002202578","2003-08-31",63.32,39.02,0.00,0.00,
"CA002202578","2003-09-01",41.36,37.22,0.00,0.00,0.00
"CA002202578","2003-09-02",51.98,35.96,0.00,0.00,0.00
"CA002202578","2003-09-03",59.36,41.18,0.00,0.00,0.00
"CA002202578","2003-09-04",59.18,42.26,2.00,0.00,0.00
"CA002202578","2003-09-05",56.30,37.04,40.00,0.00,0.00
"CA002202578","2003-09-06",54.14,37.76,6.00,0.00,0.00
"CA002202578","2003-09-07",62.96,38.30,0.00,0.00,0.00
"CA002202578","2003-09-08",58.46,43.88,0.00,0.00,0.00
"CA002202578","2003-09-09",48.74,33.26,0.00,0.00,0.00
"CA002202578","2003-09-10",55.04,39.92,0.00,0.00,0.00
"CA002202578","2003-09-11",50.18,35.78,2.00,0.00,0.00
"CA002202578","2003-09-12",41.54,29.48,42.00,0.00,0.00
"CA002202578","2003-09-13",32.90,26.06,35.00,,10.00
"CA002202578","2003-09-14",33.62,29.12,34.00,,10.00
"CA002202578","2003-09-15",40.46,26.78,0.00,0.00,20.00
"CA002202578","2003-09-16",38.66,28.22,32.00,,20.00
"CA002202578","2003-09-17",31.46,28.22,93.00,,20.00
"CA002202578","2003-09-18",32.90,22.82,14.00,,90.00
"CA002202578","2003-09-19",33.62,28.76,20.00,,80.00
"CA002202578","2003-09-20",31.82,28.22,25.00,,60.00
"CA002202578","2003-09-21",30.56,27.32,6.00,,60.00
"CA002202578","2003-09-22",31.28,28.04,13.00,,70.00
"CA002202578","2003-09-23",30.92,24.98,7.00,,80.00
"CA002202578","2003-09-24",31.10,20.66,0.00,0.00,70.00
"CA002202578","2003-09-25",32.72,26.60,0.00,0.00,70.00
"CA002202578","2003-09-26",29.30,23.72,0.00,0.00,70.00
"CA002202578","2003-09-27",35.42,25.16,6.00,,70.00
"CA002202578","2003-09-28",44.60,24.44,0.00,0.00,70.00
"CA002202578","2003-09-29",49.28,36.86,0.00,0.00,70.00
"CA002202578","2003-09-30",50.36,35.42,0.00,0.00,40.00
"CA002202578","2003-10-01",57.38,29.84,0.00,0.00,30.00
"CA002202578","2003-10-02",69.26,51.08,0.00,0.00,
"CA002202578","2003-10-03",66.74,38.84,0.00,0.00,
"CA002202578","2003-10-04",47.66,33.08,0.00,0.00,
"CA002202578","2003-10-05",33.62,28.76,0.00,0.00,
"CA002202578","2003-10-06",35.06,27.14,0.00,0.00,
"CA002202578","2003-10-07",38.48,33.80,52.00,0.00,
"CA002202578","2003-10-08",36.68,28.04,10.00,,
"CA002202578","2003-10-09",28.76,24.08,0.00,0.00,
"CA002202578","2003-10-10",33.80,19.04,6.00,,
"CA002202578","2003-10-11",34.16,21.74,0.00,0.00,
"CA002202578","2003-10-12",30.74,25.16,29.00,,
"CA002202578","2003-10-13",31.28,24.08,8.00,,70.00
"CA002202578","2003-10-14",28.40,22.46,6.00,,40.00
"CA002202578","2003-10-15",23.72,14.90,10.00,,30.00
"CA002202578","2003-10-16",18.86,12.74,0.00,0.00,50.00
"CA002202578","2003-10-17",14.90,6.26,6.00,,40.00
"CA002202578","2003-10-18",25.16,9.32,11.00,,50.00
"CA002202578","2003-10-19",31.64,24.80,0.00,0.00,50.00
"CA002202578","2003-10-20",30.74,28.22,0.00,0.00,40.00
"CA002202578","2003-10-21",28.40,25.88,6.00,,50.00
"CA002202578","2003-10-22",29.66,21.92,0.00,0.00,50.00
"CA002202578","2003-10-23",29.30,18.32,0.00,0.00,50.00
"CA002202578","2003-10-24",30.02,23.90,6.00,,50.00
"CA002202578","2003-10-25",24.80,17.78,0.00,0.00,60.00
"CA002202578","2003-10-26",23.00,14.72,15.00,,70.00
"CA002202578","2003-10-27",19.04,9.32,7.00,,80.00
"CA002202578","2003-10-28",19.76,10.76,0.00,0.00,80.00
"CA002202578","2003-10-29",16.70,5.90,0.00,0.00,80.00
"CA002202578","2003-10-30",29.30,9.68,0.00,0.00,70.00
"CA002202578","2003-10-31",32.36,27.32,38.00,,80.00
"CA002202578","2003-11-01",30.92,18.68,0.00,0.00,110.00
"CA002202578","2003-11-02",19.58,10.94,0.00,0.00,110.00
"CA002202578","2003-11-03",12.74,7.16,0.00,0.00,100.00
"CA002202578","2003-11-04",22.28,11.66,0.00,0.00,100.00
"CA002202578","2003-11-05",25.88,16.52,36.00,,100.00
"CA002202578","2003-11-06",30.74,25.52,6.00,,130.00
"CA002202578","2003-11-07",33.26,12.02,35.00,,140.00
"CA002202578","2003-11-08",15.26,10.04,14.00,,130.00
"CA002202578","2003-11-09",11.12,-5.26,13.00,,170.00
"CA002202578","2003-11-10",-3.46,-7.96,21.00,,210.00
"CA002202578","2003-11-11",-6.52,-11.92,6.00,,240.00
"CA002202578","2003-11-12",-5.26,-14.26,0.00,0.00,230.00
"CA002202578","2003-11-13",-5.62,-13.54,6.00,,220.00
"CA002202578","2003-11-14",-1.84,-7.24,0.00,0.00,230.00
"CA002202578","2003-11-15",-2.38,-12.64,25.00,,230.00
"CA002202578","2003-11-16",-2.38,-17.14,0.00,0.00,260.00
"CA002202578","2003-11-17",-9.40,-16.60,6.00,,230.00
"CA002202578","2003-11-18",-12.10,-20.74,0.00,0.00,240.00
"CA002202578","2003-11-19",-15.52,-21.64,0.00,0.00,240.00
"CA002202578","2003-11-20",-10.12,-20.74,0.00,0.00,230.00
"CA002202578","2003-11-21",15.80,-11.20,6.00,,230.00
"CA002202578","2003-11-22",21.92,14.54,49.00,,250.00
"CA002202578","2003-11-23",20.84,-2.56,9.00,,300.00
"CA002202578","2003-11-24",5.36,-1.48,0.00,0.00,250.00
"CA002202578","2003-11-25",5.36,-3.64,7.00,,260.00
"CA002202578","2003-11-26",-2.56,-14.80,0.00,0.00,280.00
"CA002202578","2003-11-27",-9.76,-15.16,0.00,0.00,270.00
"CA002202578","2003-11-28",-3.10,-14.62,0.00,0.00,270.00
"CA002202578","2003-11-29",2.66,-8.14,0.00,0.00,270.00
"CA002202578","2003-11-30",4.64,-4.54,0.00,0.00,270.00
"CA002202578","2003-12-01",3.02,-12.82,0.00,0.00,260.00
"CA002202578","2003-12-02",-2.20,-9.94,33.00,,230.00
"CA002202578","2003-12-03",-3.64,-11.74,71.00,,230.00
"CA002202578","2003-12-04",-9.40,-18.04,0.00,0.00,120.00
"CA002202578","2003-12-05",-2.56,-10.30,8.00,,120.00
"CA002202578","2003-12-06",-7.60,-25.06,0.00,0.00,120.00
"CA002202578","2003-12-07",-11.20,-24.16,0.00,0.00,120.00
"CA002202578","2003-12-08",-10.48,-14.44,0.00,0.00,120.00
"CA002202578","2003-12-09",-11.74,-16.96,0.00,0.00,120.00
"CA002202578","2003-12-10",-8.14,-19.12,0.00,0.00,120.00
"CA002202578","2003-12-11",-7.78,-18.22,0.00,0.00,120.00
"CA002202578","2003-12-12",-12.64,-19.66,0.00,0.00,120.00
"CA002202578","2003-12-13",-19.12,-23.26,0.00,0.00,120.00
"CA002202578","2003-12-14",-18.04,-22.36,0.00,0.00,120.00
"CA002202578","2003-12-15",-15.34,-22.00,0.00,0.00,120.00
"CA002202578","2003-12-16",-15.34,-27.40,0.00,0.00,120.00
"CA002202578","2003-12-17",-14.26,-22.00,0.00,0.00,120.00
"CA002202578","2003-12-18",-6.34,-17.50,0.00,0.00,120.00
"CA002202578","2003-12-19",-5.44,-12.82,0.00,0.00,120.00
"CA002202578","2003-12-20",2.30,-5.44,30.00,,110.00
"CA002202578","2003-12-21",4.10,-4.90,0.00,0.00,160.00
"CA002202578","2003-12-22",10.94,-0.40,0.00,0.00,150.00
"CA002202578","2003-12-23",6.62,1.76,13.00,,160.00
"CA002202578","2003-12-24",5.36,-5.62,0.00,0.00,130.00
"CA002202578","2003-12-25",1.76,-4.00,200.00,,150.00
"CA002202578","2003-12-26",-0.22,-8.14,27.00,,310.00
"CA002202578","2003-12-27",-7.96,-10.48,0.00,0.00,340.00
"CA002202578","2003-12-28",-9.40,-19.66,6.00,,340.00
"CA002202578","2003-12-29",-13.00,-25.24,0.00,0.00,330.00
"CA002202578","2003-12-30",-15.70,-23.98,0.00,0.00,320.00
"CA002202578","2003-12-31",-20.74,-24.52,0.00,0.00,310.00
"CA002202578","2004-01-01",-9.22,-25.06,0.00,0.00,
"CA002202578","2004-01-02",-7.78,-23.44,0.00,0.00,
"CA002202578","2004-01-03",18.68,-8.14,6.00,,
"CA002202578","2004-01-04",23.18,13.46,14.00,,
"CA002202578","2004-01-05",24.08,7.70,7.00,,
"CA002202578","2004-01-06",7.88,-4.18,38.00,,110.00
"CA002202578","2004-01-07",-3.64,-15.88,7.00,,110.00
"CA002202578","2004-01-08",-15.52,-28.66,0.00,0.00,110.00
"CA002202578","2004-01-09",-22.72,-31.90,0.00,0.00,110.00
"CA002202578","2004-01-10",-7.42,-25.24,0.00,0.00,110.00
"CA002202578","2004-01-11",-6.52,-14.26,18.00,,150.00
"CA002202578","2004-01-12",-13.00,-25.96,0.00,0.00,130.00
"CA002202578","2004-01-13",-16.42,-33.52,0.00,0.00,130.00
"CA002202578","2004-01-14",-23.44,-40.18,0.00,0.00,130.00
"CA002202578","2004-01-15",-27.94,-40.18,0.00,0.00,140.00
"CA002202578","2004-01-16",-34.24,-43.06,0.00,0.00,140.00
"CA002202578","2004-01-17",-24.70,-40.18,23.00,,140.00
"CA002202578","2004-01-18",-14.80,-29.56,19.00,,160.00
"CA002202578","2004-01-19",-11.20,-21.82,10.00,,180.00
"CA002202578","2004-01-20",-21.46,-29.38,0.00,0.00,180.00
"CA002202578","2004-01-21",-25.78,-36.40,0.00,0.00,180.00
"CA002202578","2004-01-22",-23.80,-31.54,0.00,0.00,180.00
"CA002202578","2004-01-23",-27.22,-43.60,0.00,0.00,180.00
"CA002202578","2004-01-24",-28.12,-37.12,0.00,0.00,180.00
"CA002202578","2004-01-25",-27.04,-35.50,0.00,0.00,180.00
"CA002202578","2004-01-26",-14.80,-28.30,0.00,0.00,180.00
"CA002202578","2004-01-27",-9.58,-15.70,0.00,0.00,180.00
"CA002202578","2004-01-28",-4.72,-15.34,0.00,0.00,180.00
"CA002202578","2004-01-29",-11.38,-21.82,0.00,0.00,170.00
"CA002202578","2004-01-30",-21.82,-33.52,0.00,0.00,170.00
"CA002202578","2004-01-31",-30.82,-36.04,0.00,0.00,170.00
"CA002202578","2004-02-01",-21.28,-35.68,0.00,0.00,170.00
"CA002202578","2004-02-02",-16.96,-27.94,0.00,0.00,170.00
"CA002202578","2004-02-03",-19.30,-24.70,0.00,0.00,170.00
"CA002202578","2004-02-04",-15.88,-25.42,0.00,0.00,170.00
"CA002202578","2004-02-05",-17.14,-28.30,0.00,0.00,170.00
"CA002202578","2004-02-06",-16.24,-22.00,6.00,24.00,170.00
"CA002202578","2004-02-07",-15.88,-23.26,0.00,0.00,180.00
"CA002202578","2004-02-08",-17.86,-25.24,,70.00,190.00
"CA002202578","2004-02-09",-19.84,-29.74,,50.00,250.00
"CA002202578","2004-02-10",4.82,-26.86,0.00,0.00,270.00
"CA002202578","2004-02-11",4.46,-9.22,0.00,0.00,250.00
"CA002202578","2004-02-12",-8.32,-22.36,0.00,0.00,240.00
"CA002202578","2004-02-13",-22.18,-32.62,0.00,0.00,230.00
"CA002202578","2004-02-14",-23.26,-37.48,0.00,0.00,230.00
"CA002202578","2004-02-15",-18.22,-43.06,0.00,0.00,230.00
"CA002202578","2004-02-16",-18.94,-27.40,0.00,0.00,230.00
"CA002202578","2004-02-17",-25.24,-32.80,0.00,0.00,230.00
"CA002202578","2004-02-18",-26.32,-37.48,0.00,0.00,220.00
"CA002202578","2004-02-19",-20.74,-37.84,0.00,0.00,220.00
"CA002202578","2004-02-20",-14.08,-22.54,0.00,0.00,220.00
"CA002202578","2004-02-21",-12.10,-22.00,,33.00,230.00
"CA002202578","2004-02-22",-2.38,-14.08,,,260.00
"CA002202578","2004-02-23",-2.38,-14.08,18.00,18.00,310.00
"CA002202578","2004-02-24",-11.38,-21.82,0.00,0.00,310.00
"CA002202578","2004-02-25",-10.84,-16.24,31.00,31.00,310.00
"CA002202578","2004-02-26",-16.06,-26.86,38.00,38.00,340.00
"CA002202578","2004-02-27",-26.68,-37.66,0.00,0.00,330.00
"CA002202578","2004-02-28",-20.56,-36.58,0.00,0.00,320.00
"CA002202578","2004-02-29",-24.70,-43.24,0.00,0.00,310.00
"CA002202578","2004-03-01",-21.82,-39.28,0.00,0.00,310.00
"CA002202578","2004-03-02",-9.94,-28.84,0.00,0.00,300.00
"CA002202578","2004-03-03",-7.42,-23.80,0.00,0.00,290.00
"CA002202578","2004-03-04",-6.70,-31.90,0.00,0.00,290.00
"CA002202578","2004-03-05",-20.38,-33.70,2.00,2.00,290.00
"CA002202578","2004-03-06",-29.38,-39.28,0.00,0.00,280.00
"CA002202578","2004-03-07",-25.42,-37.48,0.00,0.00,280.00
"CA002202578","2004-03-08",-16.06,-34.24,0.00,0.00,280.00
"CA002202578","2004-03-09",-12.10,-29.56,0.00,0.00,270.00
"CA002202578","2004-03-10",-4.00,-18.94,0.00,0.00,270.00
"CA002202578","2004-03-11",-0.94,-23.62,0.00,0.00,270.00
"CA002202578","2004-03-12",-7.60,-24.70,0.00,0.00,270.00
"CA002202578","2004-03-13",-2.56,-25.78,0.00,0.00,270.00
"CA002202578","2004-03-14",12.38,-7.96,0.00,0.00,270.00
"CA002202578","2004-03-15",5.90,-11.38,0.00,0.00,260.00
"CA002202578","2004-03-16",-7.96,-14.98,0.00,0.00,260.00
"CA002202578","2004-03-17",-0.76,-16.06,0.00,0.00,260.00
"CA002202578","2004-03-18",-10.84,-22.36,7.00,7.00,260.00
"CA002202578","2004-03-19",-19.12,-31.00,0.00,0.00,240.00
"CA002202578","2004-03-20",6.26,-29.92,0.00,0.00,240.00
"CA002202578","2004-03-21",17.06,4.46,3.00,3.00,260.00
"CA002202578","2004-03-22",24.26,1.58,7.00,7.00,290.00
"CA002202578","2004-03-23",1.58,-30.10,0.00,0.00,230.00
"CA002202578","2004-03-24",-19.48,-36.76,0.00,0.00,230.00
"CA002202578","2004-03-25",-13.72,-30.82,0.00,0.00,230.00
"CA002202578","2004-03-26",-6.34,-26.50,0.00,0.00,230.00
"CA002202578","2004-03-27",-8.50,-30.82,0.00,0.00,230.00
"CA002202578","2004-03-28",-5.44,-25.06,0.00,0.00,230.00
"CA002202578","2004-03-29",-7.42,-13.18,2.00,2.00,230.00
"CA002202578","2004-03-30",-5.08,-13.00,40.00,40.00,250.00
"CA002202578","2004-03-31",-9.40,-13.54,72.00,72.00,370.00
"CA002202578","2004-04-01",-1.48,-11.74,0.00,0.00,280.00
"CA002202578","2004-04-02",2.48,-16.96,0.00,0.00,280.00
"CA002202578","2004-04-03",12.92,0.14,22.00,22.00,290.00
"CA002202578","2004-04-04",0.32,-8.14,138.00,138.00,320.00
"CA002202578","2004-04-05",10.94,-7.06,42.00,42.00,350.00
"CA002202578","2004-04-06",32.90,8.78,0.00,0.00,340.00
"CA002202578","2004-04-07",30.20,16.70,0.00,0.00,340.00
"CA002202578","2004-04-08",40.46,19.40,0.00,0.00,340.00
"CA002202578","2004-04-09",43.88,26.96,0.00,0.00,330.00
"CA002202578","2004-04-10",32.90,7.34,0.00,0.00,330.00
"CA002202578","2004-04-11",7.34,-8.14,0.00,0.00,330.00
"CA002202578","2004-04-12",2.30,-11.38,0.00,0.00,320.00
"CA002202578","2004-04-13",14.18,-9.04,0.00,0.00,320.00
"CA002202578","2004-04-14",23.90,1.58,0.00,0.00,320.00
"CA002202578","2004-04-15",13.28,-6.70,0.00,0.00,320.00
"CA002202578","2004-04-16",13.82,-5.80,0.00,0.00,320.00
"CA002202578","2004-04-17",15.62,-0.22,0.00,0.00,310.00
"CA002202578","2004-04-18",17.24,-4.90,0.00,0.00,310.00
"CA002202578","2004-04-19",4.82,-18.58,0.00,0.00,310.00
"CA002202578","2004-04-20",16.88,-9.40,0.00,0.00,310.00
"CA002202578","2004-04-21",19.22,-2.02,0.00,0.00,310.00
"CA002202578","2004-04-22",19.94,-2.02,0.00,0.00,310.00
"CA002202578","2004-04-23",19.94,10.04,0.00,0.00,310.00
"CA002202578","2004-04-24",28.76,10.58,0.00,0.00,310.00
"CA002202578","2004-04-25",37.04,16.88,0.00,0.00,310.00
"CA002202578","2004-04-26",32.90,6.98,0.00,0.00,300.00
"CA002202578","2004-04-27",44.24,17.96,0.00,0.00,300.00
"CA002202578","2004-04-28",36.68,22.46,38.00,38.00,280.00
"CA002202578","2004-04-29",34.34,13.10,0.00,0.00,290.00
"CA002202578","2004-04-30",39.92,27.50,0.00,0.00,290.00
"CA002202578","2004-05-01",30.74,11.12,8.00,8.00,280.00
"CA002202578","2004-05-02",31.46,7.70,0.00,0.00,280.00
"CA002202578","2004-05-03",26.42,19.22,8.00,8.00,280.00
"CA002202578","2004-05-04",19.22,13.10,0.00,0.00,270.00
"CA002202578","2004-05-05",15.08,8.06,10.00,10.00,270.00
"CA002202578","2004-05-06",17.78,5.72,0.00,0.00,270.00
"CA002202578","2004-05-07",11.66,4.64,0.00,0.00,270.00
"CA002202578","2004-05-08",19.94,0.68,6.00,6.00,270.00
"CA002202578","2004-05-09",29.84,9.14,0.00,0.00,270.00
"CA002202578","2004-05-10",38.84,18.14,0.00,0.00,270.00
"CA002202578","2004-05-11",45.86,30.20,0.00,0.00,270.00
"CA002202578","2004-05-12",35.96,22.46,0.00,0.00,230.00
"CA002202578","2004-05-13",25.16,13.82,0.00,0.00,220.00
"CA002202578","2004-05-14",31.82,8.06,0.00,0.00,220.00
"CA002202578","2004-05-15",33.62,16.88,0.00,0.00,220.00
"CA002202578","2004-05-16",43.52,21.02,0.00,0.00,200.00
"CA002202578","2004-05-17",38.30,16.88,0.00,0.00,140.00
"CA002202578","2004-05-18",37.40,14.18,0.00,0.00,140.00
"CA002202578","2004-05-19",35.06,26.60,27.00,22.00,130.00
"CA002202578","2004-05-20",41.00,26.60,0.00,0.00,140.00
"CA002202578","2004-05-21",33.08,21.92,12.00,12.00,80.00
"CA002202578","2004-05-22",46.22,32.00,0.00,0.00,80.00
"CA002202578","2004-05-23",56.30,39.20,0.00,0.00,0.00
"CA002202578","2004-05-24",55.22,41.72,0.00,0.00,0.00
"CA002202578","2004-05-25",42.26,29.30,0.00,0.00,0.00
"CA002202578","2004-05-26",30.20,20.66,0.00,0.00,0.00
"CA002202578","2004-05-27",46.40,19.58,0.00,0.00,0.00
"CA002202578","2004-05-28",52.70,34.52,0.00,0.00,0.00
"CA002202578","2004-05-29",53.60,38.66,0.00,0.00,0.00
"CA002202578","2004-05-30",54.86,35.96,0.00,0.00,0.00
"CA002202578","2004-05-31",59.36,40.28,0.00,0.00,0.00
"CA002202578","2004-06-01",65.48,44.24,0.00,0.00,0.00
"CA002202578","2004-06-02",48.92,36.68,4.00,0.00,0.00
"CA002202578","2004-06-03",45.68,31.10,2.00,0.00,0.00
"CA002202578","2004-06-04",60.80,31.46,0.00,0.00,0.00
"CA002202578","2004-06-05",64.40,46.04,0.00,0.00,0.00
"CA002202578","2004-06-06",59.18,35.60,0.00,0.00,0.00
"CA002202578","2004-06-07",57.20,40.46,0.00,0.00,0.00
"CA002202578","2004-06-08",64.76,35.42,0.00,0.00,0.00
"CA002202578","2004-06-09",43.34,29.48,0.00,0.00,0.00
"CA002202578","2004-06-10",53.78,30.02,0.00,0.00,0.00
"CA002202578","2004-06-11",60.26,37.58,0.00,0.00,0.00
"CA002202578","2004-06-12",66.38,45.32,0.00,0.00,0.00
"CA002202578","2004-06-13",70.34,51.98,0.00,0.00,0.00
"CA002202578","2004-06-14",64.22,40.10,0.00,0.00,0.00
"CA002202578","2004-06-15",67.10,35.42,0.00,0.00,0.00
"CA002202578","2004-06-16",79.16,50.90,0.00,0.00,0.00
"CA002202578","2004-06-17",86.90,64.04,0.00,0.00,0.00
"CA002202578","2004-06-18",84.02,52.70,0.00,0.00,0.00
"CA002202578","2004-06-19",70.70,50.90,0.00,0.00,0.00
"CA002202578","2004-06-20",73.40,45.86,0.00,0.00,0.00
"CA002202578","2004-06-21",80.60,53.06,62.00,0.00,0.00
"CA002202578","2004-06-22",74.84,55.76,0.00,0.00,0.00
"CA002202578","2004-06-23",82.04,58.10,0.00,0.00,0.00
"CA002202578","2004-06-24",84.38,66.38,0.00,0.00,0.00
"CA002202578","2004-06-25",86.54,59.00,0.00,0.00,0.00
"CA002202578","2004-06-26",68.36,51.26,0.00,0.00,0.00
"CA002202578","2004-06-27",55.94,43.88,0.00,0.00,0.00
"CA002202578","2004-06-28",72.86,47.48,0.00,0.00,0.00
"CA002202578","2004-06-29",68.00,49.82,0.00,0.00,0.00
"CA002202578","2004-06-30",62.24,37.22,0.00,0.00,0.00
"CA002202578","2004-07-01",67.64,41.90,0.00,0.00,0.00
"CA002202578","2004-07-02",75.02,52.52,0.00,0.00,0.00
"CA002202578","2004-07-03",82.22,58.82,0.00,0.00,0.00
"CA002202578","2004-07-04",75.02,64.04,0.00,0.00,0.00
"CA002202578","2004-07-05",73.22,57.02,2.00,0.00,0.00
"CA002202578","2004-07-06",57.20,46.22,10.00,0.00,0.00
"CA002202578","2004-07-07",65.30,41.54,0.00,0.00,0.00
"CA002202578","2004-07-08",53.06,38.30,20.00,0.00,0.00
"CA002202578","2004-07-09",69.26,42.26,2.00,0.00,0.00
"CA002202578","2004-07-10",52.16,42.80,36.00,0.00,0.00
"CA002202578","2004-07-11",69.44,44.78,16.00,0.00,0.00
"CA002202578","2004-07-12",66.56,44.78,44.00,0.00,0.00
"CA002202578","2004-07-13",65.48,44.60,20.00,0.00,0.00
"CA002202578","2004-07-14",72.50,50.54,0.00,0.00,0.00
"CA002202578","2004-07-15",69.08,57.02,0.00,0.00,0.00
"CA002202578","2004-07-16",60.26,47.48,46.00,0.00,0.00
"CA002202578","2004-07-17",61.88,45.14,0.00,0.00,0.00
"CA002202578","2004-07-18",66.92,53.06,0.00,0.00,0.00
"CA002202578","2004-07-19",68.00,48.92,0.00,0.00,0.00
"CA002202578","2004-07-20",70.88,51.98,0.00,0.00,0.00
"CA002202578","2004-07-21",64.40,50.36,0.00,0.00,0.00
"CA002202578","2004-07-22",62.42,47.12,0.00,0.00,0.00
"CA002202578","2004-07-23",65.12,55.04,112.00,0.00,0.00
"CA002202578","2004-07-24",68.36,53.24,0.00,0.00,0.00
"CA002202578","2004-07-25",70.52,51.26,0.00,0.00,0.00
"CA002202578","2004-07-26",77.54,49.10,0.00,0.00,0.00
"CA002202578","2004-07-27",83.84,64.40,0.00,0.00,0.00
"CA002202578","2004-07-28",74.30,49.28,0.00,0.00,0.00
"CA002202578","2004-07-29",49.28,41.36,14.00,0.00,0.00
"CA002202578","2004-07-30",57.56,38.66,2.00,0.00,0.00
"CA002202578","2004-07-31",66.74,44.96,2.00,0.00,0.00
"CA002202578","2004-08-01",45.86,39.20,52.00,0.00,0.00
"CA002202578","2004-08-02",45.68,38.66,6.00,0.00,0.00
"CA002202578","2004-08-03",45.14,38.12,34.00,0.00,0.00
"CA002202578","2004-08-04",53.24,37.04,0.00,0.00,0.00
"CA002202578","2004-08-05",59.90,37.76,0.00,0.00,0.00
"CA002202578","2004-08-06",67.46,39.02,0.00,0.00,0.00
"CA002202578","2004-08-07",72.50,49.82,0.00,0.00,0.00
"CA002202578","2004-08-08",78.98,57.74,0.00,0.00,0.00
"CA002202578","2004-08-09",81.14,56.66,0.00,0.00,0.00
"CA002202578","2004-08-10",70.88,56.66,0.00,0.00,0.00
"CA002202578","2004-08-11",60.80,52.16,0.00,0.00,0.00
"CA002202578","2004-08-12",69.98,46.58,0.00,0.00,0.00
"CA002202578","2004-08-13",75.02,59.00,8.00,0.00,0.00
"CA002202578","2004-08-14",59.72,42.26,50.00,0.00,0.00
"CA002202578","2004-08-15",68.72,43.70,0.00,0.00,0.00
"CA002202578","2004-08-16",70.52,52.16,0.00,0.00,0.00
"CA002202578","2004-08-17",78.26,50.54,0.00,0.00,0.00
"CA002202578","2004-08-18",73.40,55.58,0.00,0.00,0.00
"CA002202578","2004-08-19",68.18,49.82,0.00,0.00,0.00
"CA002202578","2004-08-20",55.94,41.90,0.00,0.00,0.00
"CA002202578","2004-08-21",67.10,42.98,0.00,0.00,0.00
"CA002202578","2004-08-22",70.70,46.40,0.00,0.00,0.00
"CA002202578","2004-08-23",60.26,39.02,0.00,0.00,0.00
"CA002202578","2004-08-24",41.72,34.88,0.00,0.00,0.00
"CA002202578","2004-08-25",43.16,29.12,0.00,0.00,0.00
"CA002202578","2004-08-26",44.78,32.90,0.00,0.00,0.00
"CA002202578","2004-08-27",51.26,30.02,0.00,0.00,0.00
"CA002202578","2004-08-28",55.58,32.54,0.00,0.00,0.00
"CA002202578","2004-08-29",60.08,35.96,0.00,0.00,0.00
"CA002202578","2004-08-30",43.70,37.58,32.00,0.00,0.00
"CA002202578","2004-08-31",55.40,37.04,2.00,0.00,0.00
"CA002202578","2004-09-01",60.98,40.10,0.00,0.00,0.00
"CA002202578","2004-09-02",54.14,34.16,28.00,0.00,0.00
"CA002202578","2004-09-03",40.46,31.28,4.00,0.00,0.00
"CA002202578","2004-09-04",40.28,31.82,26.00,0.00,0.00
"CA002202578","2004-09-05",39.92,31.10,4.00,0.00,0.00
"CA002202578","2004-09-06",40.64,30.38,4.00,0.00,0.00
"CA002202578","2004-09-07",46.58,32.36,6.00,0.00,0.00
"CA002202578","2004-09-08",54.68,39.92,10.00,0.00,0.00
"CA002202578","2004-09-09",51.80,33.44,0.00,0.00,0.00
"CA002202578","2004-09-10",47.66,33.44,0.00,0.00,0.00
"CA002202578","2004-09-11",43.34,28.76,0.00,0.00,0.00
"CA002202578","2004-09-12",35.06,29.66,0.00,0.00,0.00
"CA002202578","2004-09-13",33.98,28.04,0.00,0.00,0.00
"CA002202578","2004-09-14",30.92,26.06,0.00,0.00,0.00
"CA002202578","2004-09-15",33.26,24.98,0.00,0.00,0.00
"CA002202578","2004-09-16",30.20,23.90,0.00,0.00,0.00
"CA002202578","2004-09-17",30.56,21.56,0.00,0.00,0.00
"CA002202578","2004-09-18",35.24,23.36,0.00,0.00,0.00
"CA002202578","2004-09-19",44.60,27.86,2.00,0.00,0.00
"CA002202578","2004-09-20",47.84,31.64,0.00,0.00,0.00
"CA002202578","2004-09-21",40.10,30.20,0.00,0.00,0.00
"CA002202578","2004-09-22",48.02,32.00,0.00,0.00,0.00
"CA002202578","2004-09-23",52.34,32.72,0.00,0.00,0.00
"CA002202578","2004-09-24",40.82,33.44,0.00,0.00,0.00
"CA002202578","2004-09-25",42.98,23.90,0.00,0.00,0.00
"CA002202578","2004-09-26",48.38,32.18,2.00,0.00,0.00
"CA002202578","2004-09-27",46.40,32.18,10.00,0.00,0.00
"CA002202578","2004-09-28",38.30,28.40,0.00,0.00,0.00
"CA002202578","2004-09-29",30.20,23.90,22.00,22.00,0.00
"CA002202578","2004-09-30",26.78,20.30,16.00,16.00,
"CA002202578","2004-10-01",26.24,18.68,26.00,37.00,10.00
"CA002202578","2004-10-02",28.40,10.04,0.00,0.00,30.00
"CA002202578","2004-10-03",28.22,16.34,0.00,0.00,30.00
"CA002202578","2004-10-04",39.02,25.34,0.00,0.00,30.00
"CA002202578","2004-10-05",36.14,29.84,0.00,0.00,30.00
"CA002202578","2004-10-06",32.00,28.40,0.00,0.00,20.00
"CA002202578","2004-10-07",29.84,24.26,0.00,0.00,20.00
"CA002202578","2004-10-08",30.02,24.26,6.00,6.00,20.00
"CA002202578","2004-10-09",28.22,23.36,0.00,0.00,20.00
"CA002202578","2004-10-10",26.60,20.84,8.00,11.00,20.00
"CA002202578","2004-10-11",21.02,12.20,6.00,6.00,40.00
"CA002202578","2004-10-12",15.44,7.88,6.00,15.00,40.00
"CA002202578","2004-10-13",15.26,10.04,7.00,7.00,50.00
"CA002202578","2004-10-14",18.68,14.00,14.00,17.00,70.00
"CA002202578","2004-10-15",15.98,5.90,0.00,0.00,70.00